SCP
1 1 1 1 1 1 1 1 1 1 1 1 1 1 1 1 1 1 1 1 1 1 1 1 1 1 1 1 1 1 1 1 1 1 1 1 1 1 0 1 1 1 1
1 1 1 1 1 1 1 1 1 1 1 1 1 1 1 1 1 1 1 1 1 1 1 1 1 1 1 1 1 1 1 1 1 1 1 1 1 0 0 0 1 1 1
1 1 1 1 1 1 1 1 1 1 1 1 1 1 1 1 1 1 1 1 1 1 1 1 1 1 1 1 1 1 1 1 1 1 1 0 0 0 0 0 0 1 1
1 1 1 1 1 1 1 1 1 1 1 1 1 1 1 1 1 1 1 1 1 1 1 1 1 1 1 1 1 1 1 1 1 0 0 0 0 0 0 0 0 0 0
1 1 1 1 1 1 1 1 1 1 1 1 1 1 1 1 1 1 1 1 1 1 1 1 1 1 1 1 1 1 1 0 0 0 0 0 0 0 0 0 0 0 0
1 1 1 1 1 1 1 1 1 1 1 1 1 1 1 1 1 1 1 1 1 1 1 1 1 1 1 1 1 1 1 0 0 1 0 1 1 1 1 1 1 0 0
1 1 1 1 1 1 1 1 1 1 1 1 1 1 1 1 1 2 2 1 1 1 1 1 1 1 1 1 1 1 1 1 1 1 1 1 1 1 1 1 1 1 1
1 1 1 2 2 1 1 1 1 1 1 1 1 1 1 1 1 2 2 1 1 1 1 1 1 1 1 1 2 1 1 1 1 1 1 1 1 1 1 1 1 1 1
1 1 1 2 2 2 2 1 1 1 1 1 1 1 2 2 2 2 2 2 2 2 2 1 1 2 2 2 2 1 1 1 1 1 1 1 1 1 1 1 1 1 1
1 1 1 2 2 2 2 2 1 1 1 1 2 2 2 3 3 3 2 2 2 2 2 2 2 2 2 2 2 2 1 1 1 0 1 1 2 2 1 1 1 1 1
1 1 1 1 2 2 2 2 2 2 2 2 2 2 3 3 2 2 2 2 3 3 4 3 2 2 2 2 2 2 2 1 1 0 1 2 2 2 2 1 1 1 1
1 1 1 1 1 1 2 3 3 3 3 3 2 2 2 2 2 2 2 3 4 4 4 4 3 2 2 2 2 2 1 1 1 1 1 2 2 2 2 2 1 1 1
1 1 1 1 1 1 1 3 3 4 5 4 4 3 3 2 2 2 3 4 4 4 3 3 2 2 1 2 2 1 1 1 1 1 1 1 1 2 2 2 1 1 1
1 1 1 1 1 2 2 2 3 4 5 6 6 6 5 4 3 3 3 4 4 3 3 3 2 2 2 1 1 1 1 1 1 1 1 1 1 2 2 2 2 1 1
2 2 2 2 2 2 3 4 3 3 4 6 8 9 8 6 4 4 4 4 4 3 3 3 3 2 2 1 2 2 2 2 1 1 1 1 1 1 2 2 1 1 1
3 3 3 3 3 4 5 6 5 4 3 4 6 9 9 7 5 4 4 4 4 4 4 4 3 2 2 1 2 2 3 2 2 1 1 1 1 2 1 1 1 1 1
3 3 3 3 4 6 7 8 6 5 4 3 4 6 8 7 5 4 4 4 4 4 4 4 3 2 2 1 2 2 3 3 3 2 2 1 2 2 1 1 1 1 1
4 5 6 7 8 9 10 9 7 5 4 4 4 4 6 6 5 4 3 3 3 3 4 4 4 2 2 2 2 2 3 4 3 2 2 2 2 2 2 1 1 1 1
7 9 12 14 14 12 11 9 7 5 5 4 3 4 5 5 4 3 3 2 3 2 3 3 3 3 2 2 2 1 2 3 3 3 3 3 3 3 2 2 1 1 1
9 11 14 14 13 11 9 8 6 5 5 4 4 5 6 5 4 3 2 2 2 2 2 2 2 2 2 2 1 1 2 2 2 3 3 3 3 4 3 3 2 2 1
7 9 11 10 10 10 8 7 6 5 5 4 4 6 6 5 4 3 3 3 3 2 2 2 2 2 1 1 1 1 1 2 2 2 2 3 3 3 3 3 2 2 2
5 7 9 9 10 11 10 8 7 6 5 5 5 6 6 6 5 4 3 3 3 2 2 2 2 1 1 1 1 1 1 1 1 2 2 2 3 3 3 3 3 2 2
5 6 8 10 12 12 11 9 8 7 6 6 5 6 6 6 5 4 3 3 3 2 2 2 2 1 1 1 1 1 1 1 1 2 2 2 3 3 3 3 3 3 3
4 5 7 10 13 14 12 10 9 8 7 6 6 6 6 5 4 4 3 3 3 2 2 2 2 2 1 1 1 2 2 2 2 2 2 2 2 3 3 3 3 4 4
5 5 7 10 13 13 12 10 8 7 7 7 7 6 5 4 3 3 3 3 3 2 1 2 2 2 2 2 2 2 2 2 2 2 2 2 2 3 4 4 4 5 4
6 6 7 10 11 11 11 9 8 7 7 7 7 7 5 3 3 3 3 2 2 2 1 1 2 2 3 3 2 2 2 2 2 2 2 2 2 2 3 4 5 5 5
Wind_Speed
7 7 7 8 9 9 10 10 10 10 10 10 11 12 12 13 13 13 13 13 14 15 15 14 14 14 14 13 13 13 13 13 13 14 13 12 12 11 11 11 11 10 14
8 7 8 9 9 10 10 10 11 11 11 11 12 12 12 12 13 13 12 12 13 14 14 14 14 14 13 13 12 12 12 12 13 13 13 12 11 10 9 9 10 9 13
8 7 9 9 10 10 10 11 11 12 12 12 12 12 12 12 12 12 12 12 13 13 14 13 13 13 13 12 11 11 11 11 12 12 11 8 9 9 9 11 12 12 12
9 8 10 10 10 10 11 11 11 11 12 12 12 12 12 12 11 12 12 12 13 13 13 13 13 13 13 12 10 10 10 10 10 10 6 6 7 10 11 11 11 11 11
11 10 11 11 10 10 11 11 11 11 12 12 12 12 11 11 11 12 12 12 12 13 12 12 12 12 11 10 9 9 9 8 8 6 4 6 7 11 12 11 11 10 10
11 11 11 11 12 12 11 11 11 11 12 12 12 11 11 11 11 12 13 12 12 12 12 12 11 11 10 9 8 7 7 6 5 4 4 7 7 11 12 11 10 10 9
11 11 11 12 13 12 12 11 11 12 12 11 11 11 11 11 11 12 12 12 12 12 11 11 11 10 9 8 7 6 5 4 4 2 5 7 8 12 12 11 10 10 9
12 12 12 13 14 13 12 12 12 12 11 11 11 11 11 11 12 12 12 12 11 11 11 10 10 10 9 8 6 5 4 4 3 5 6 8 11 12 12 11 10 10 10
12 12 10 10 11 12 12 12 12 12 11 11 11 11 11 11 11 12 12 11 11 10 10 9 9 9 8 7 6 5 4 3 2 2 6 7 11 12 12 11 10 10 10
10 10 10 9 8 8 9 11 12 12 11 10 10 11 11 11 11 11 11 11 10 10 9 9 9 9 8 7 6 5 4 4 3 3 4 8 12 12 12 11 11 10 10
10 8 8 9 7 7 8 10 11 11 10 9 8 9 8 6 7 8 10 11 10 10 9 9 9 9 8 7 7 6 5 3 2 3 4 11 12 12 12 11 11 10 10
9 8 7 7 6 6 7 6 5 6 6 5 5 5 4 3 4 6 11 11 10 9 9 9 9 7 6 4 6 6 3 4 2 4 6 13 12 11 11 10 10 10 9
7 7 8 7 6 5 5 4 3 3 4 4 5 4 4 3 3 4 4 5 5 7 5 6 6 5 4 3 3 4 3 2 2 3 7 12 11 10 10 10 10 10 10
7 8 8 7 6 5 4 3 3 3 3 3 4 4 3 2 2 2 2 3 3 2 3 3 3 3 3 3 3 3 3 2 2 3 6 12 11 11 11 10 10 10 10
7 8 8 7 6 5 4 2 3 3 3 3 3 3 3 2 2 2 2 2 2 2 2 2 2 1 1 1 1 2 2 2 4 4 4 10 11 11 11 11 11 11 10
8 8 7 7 6 4 3 2 2 3 3 3 3 4 3 3 3 2 2 1 1 1 2 2 2 2 1 1 1 1 1 1 3 3 4 7 10 10 10 10 10 11 11
8 8 7 7 6 4 3 2 2 2 4 3 3 4 3 3 3 1 1 1 1 0 1 1 1 1 2 2 2 1 1 1 1 3 4 4 5 8 9 9 9 10 11
8 7 5 6 7 5 3 2 2 2 3 3 3 3 3 3 2 1 1 1 1 1 1 1 1 1 1 1 1 1 1 1 2 3 3 4 4 4 8 10 10 10 10
8 7 5 5 6 4 4 2 2 2 2 2 2 2 3 3 2 1 1 1 1 1 1 1 1 1 1 1 2 2 2 2 2 2 3 3 4 4 4 7 10 10 11
9 7 6 5 4 3 3 2 1 1 1 2 2 2 3 2 2 1 1 1 1 1 1 1 1 1 2 2 2 2 2 2 2 2 3 2 3 4 4 5 6 7 10
9 8 6 5 4 3 2 1 1 1 1 1 2 3 3 2 2 1 1 1 1 1 1 1 1 2 2 2 1 1 1 2 3 2 2 2 2 2 3 3 4 4 5
9 8 7 5 5 4 3 2 1 1 1 2 2 2 2 2 2 2 1 1 1 1 1 1 1 1 2 2 1 1 1 1 1 3 2 2 2 1 2 3 3 3 3
10 9 7 6 5 5 4 2 2 1 1 1 2 2 2 2 1 1 1 1 1 1 1 2 1 1 1 1 1 1 1 1 1 1 2 2 2 1 1 2 3 3 4
10 10 7 7 5 5 4 3 3 3 2 2 2 2 2 2 2 2 2 1 1 0 1 2 1 1 1 1 1 1 1 1 1 1 1 1 1 1 1 2 2 3 3
10 10 8 7 6 5 4 3 2 2 2 2 2 3 2 2 2 2 3 2 1 0 0 0 1 1 1 1 1 1 1 1 2 2 1 1 1 1 2 2 1 1 2
10 9 10 8 6 6 5 4 3 2 1 1 2 3 3 2 2 2 2 2 1 1 0 0 0 1 1 1 2 1 1 1 1 1 1 1 1 1 1 1 1 1 2
Wind_Direction
76 77 76 79 84 88 92 96 100 101 104 104 106 107 106 106 107 108 111 112 115 120 121 121 122 122 120 119 117 117 117 115 114 115 115 111 108 109 113 115 112 108 112
90 89 85 84 89 92 95 99 105 105 107 109 110 109 109 111 113 112 111 115 118 122 121 120 122 122 120 120 119 120 121 122 122 124 123 117 113 114 117 116 107 114 119
91 95 94 88 93 97 99 102 106 109 112 112 112 112 112 113 114 115 114 117 122 123 122 121 121 122 122 122 121 122 124 127 133 136 135 128 121 121 116 111 113 119 119
92 91 91 94 98 100 103 106 107 111 114 115 116 115 114 114 116 119 119 118 121 122 122 122 121 122 125 126 126 128 133 137 144 153 152 135 132 127 124 121 123 125 125
86 89 95 96 98 102 104 106 108 114 115 117 117 116 116 117 118 119 122 122 121 122 122 123 124 124 126 128 132 138 144 149 160 168 138 129 124 135 134 132 133 133 132
88 88 96 101 102 104 104 106 106 108 113 116 119 119 120 122 123 124 125 126 125 124 125 127 130 131 132 136 141 148 157 168 188 168 143 129 127 142 142 142 141 140 139
89 91 97 101 106 106 107 108 108 109 112 117 122 124 126 127 127 127 128 129 129 129 129 129 133 136 141 146 151 161 173 198 199 162 133 125 134 146 146 147 147 146 145
92 92 97 103 105 106 108 108 108 109 111 116 120 124 129 131 131 130 131 132 132 131 133 136 139 140 147 155 163 172 189 226 179 155 131 125 140 147 149 151 152 150 148
95 99 103 105 108 107 109 110 110 110 113 119 121 125 128 131 133 135 135 135 134 135 141 146 146 146 152 161 173 192 214 236 228 154 134 130 144 149 152 153 154 154 153
90 96 105 108 114 118 119 118 118 119 121 122 122 124 127 132 136 141 142 141 142 145 149 154 155 155 160 169 187 208 236 257 202 147 124 136 146 151 154 158 159 161 160
87 91 101 109 118 120 120 123 128 127 128 129 130 130 132 140 140 146 134 141 151 154 155 160 162 164 168 184 201 214 239 235 170 131 122 141 150 153 157 163 166 168 168
93 98 94 92 101 104 107 120 129 130 130 137 126 139 141 134 125 127 133 145 152 158 160 165 166 171 187 194 202 214 229 201 160 130 133 145 150 156 160 164 169 172 175
101 98 98 89 78 84 96 113 107 112 120 130 117 119 122 119 122 122 138 146 157 165 169 167 180 191 195 187 182 195 213 193 139 127 141 149 156 162 165 170 175 179 182
98 95 93 96 87 75 74 89 107 106 114 121 117 117 112 108 107 114 119 139 159 163 160 165 180 185 183 185 185 191 206 179 134 125 149 161 166 171 174 180 186 189 190
105 98 94 93 88 87 78 81 97 102 105 106 114 113 109 111 107 106 117 125 137 142 156 148 152 147 161 198 202 201 207 163 145 149 150 165 169 177 182 189 195 198 197
114 108 104 102 98 93 93 80 86 94 91 85 94 104 105 101 98 102 115 109 117 135 128 145 156 159 176 190 224 264 261 169 146 144 146 167 177 183 188 194 199 200 200
121 112 114 116 111 104 92 78 88 100 107 97 91 94 97 97 95 105 128 149 131 125 134 147 146 162 180 176 174 206 214 184 148 139 155 166 177 187 192 195 199 203 204
118 115 118 119 115 111 100 72 69 79 96 108 105 105 106 103 118 136 117 112 150 177 164 154 167 160 176 174 179 206 176 163 173 167 171 175 181 187 196 202 206 208 211
117 115 116 107 116 124 121 115 108 85 93 113 115 116 122 124 117 126 138 156 197 179 162 172 129 165 189 196 198 198 189 175 185 188 179 180 185 178 179 196 205 211 215
127 125 126 119 120 126 120 130 124 125 132 130 116 121 123 126 135 155 167 175 202 160 147 125 142 187 207 215 217 194 187 175 172 180 199 190 187 184 187 189 194 211 215
136 137 137 139 139 142 135 151 150 149 149 121 123 127 137 148 163 173 172 164 176 170 155 145 163 213 216 195 193 210 217 191 174 180 205 203 192 194 181 175 181 194 203
147 146 148 155 154 157 153 168 176 161 160 147 120 122 133 148 177 173 171 184 146 166 156 164 188 224 226 190 189 165 189 228 221 194 184 191 183 185 178 179 181 194 203
155 158 163 163 161 169 165 164 171 145 189 130 136 150 157 172 172 121 151 159 187 192 165 193 209 221 240 227 179 183 193 203 202 172 188 180 169 172 186 186 177 194 211
162 161 155 156 159 165 170 182 187 177 186 163 167 158 166 178 177 159 152 159 207 252 138 219 180 243 227 252 224 234 221 167 183 190 220 185 174 199 222 233 212 196 197
164 159 155 155 161 165 177 190 198 188 194 169 166 150 172 182 194 165 153 164 190 224 175 293 44 301 291 295 293 285 287 234 223 193 224 217 201 213 207 211 213 195 184
166 163 159 157 162 168 180 191 191 200 200 181 180 162 190 181 178 169 156 165 164 169 177 181 279 278 312 329 321 306 293 283 271 211 228 242 233 221 205 192 194 185 170